TimeCST,TemperatureF,Dew PointF,Humidity,Sea Level PressureIn,VisibilityMPH,Wind Direction,Wind SpeedMPH,Gust SpeedMPH,PrecipitationIn,Events,Conditions,WindDirDegrees,DateUTC
12:52 AM,15.1,5.0,64,30.27,10.0,ENE,3.5,-,N/A,,Overcast,70,2014-01-22 06:52:00
1:52 AM,15.1,6.1,68,30.27,10.0,Calm,Calm,-,N/A,,Overcast,0,2014-01-22 07:52:00
2:52 AM,15.1,6.1,68,30.24,10.0,SE,3.5,-,N/A,,Overcast,130,2014-01-22 08:52:00
3:52 AM,16.0,7.0,68,30.20,10.0,SSE,8.1,-,N/A,,Overcast,160,2014-01-22 09:52:00
4:52 AM,16.0,8.1,71,30.18,10.0,South,8.1,-,N/A,,Overcast,180,2014-01-22 10:52:00
5:52 AM,16.0,8.1,71,30.18,10.0,South,9.2,-,N/A,,Overcast,180,2014-01-22 11:52:00
6:52 AM,17.1,9.0,71,30.19,10.0,SSW,5.8,-,N/A,,Overcast,200,2014-01-22 12:52:00
7:52 AM,18.0,10.0,71,30.17,10.0,South,8.1,-,N/A,,Overcast,190,2014-01-22 13:52:00
8:52 AM,19.9,10.9,68,30.16,10.0,SSW,12.7,-,N/A,,Overcast,200,2014-01-22 14:52:00
9:52 AM,21.0,10.9,65,30.16,10.0,SSW,15.0,-,N/A,,Overcast,210,2014-01-22 15:52:00
10:52 AM,23.0,12.0,63,30.14,10.0,SSW,12.7,-,N/A,,Overcast,210,2014-01-22 16:52:00
11:52 AM,25.0,12.9,60,30.10,10.0,SW,12.7,-,N/A,,Overcast,220,2014-01-22 17:52:00
12:52 PM,27.0,14.0,58,30.09,10.0,WSW,11.5,-,N/A,,Overcast,250,2014-01-22 18:52:00
1:52 PM,28.9,14.0,54,30.08,10.0,West,8.1,-,N/A,,Overcast,260,2014-01-22 19:52:00
2:52 PM,30.0,14.0,51,30.09,10.0,NW,13.8,24.2,N/A,,Overcast,310,2014-01-22 20:52:00
3:52 PM,30.0,14.0,51,30.09,10.0,WNW,8.1,-,N/A,,Mostly Cloudy,290,2014-01-22 21:52:00
4:52 PM,30.0,12.9,49,30.11,10.0,WNW,6.9,-,N/A,,Clear,290,2014-01-22 22:52:00
5:52 PM,28.0,12.9,53,30.16,10.0,NW,8.1,-,N/A,,Clear,310,2014-01-22 23:52:00
6:52 PM,26.1,12.9,58,30.17,10.0,Calm,Calm,-,N/A,,Clear,0,2014-01-23 00:52:00
7:52 PM,23.0,16.0,74,30.19,10.0,SSW,3.5,-,N/A,,Overcast,200,2014-01-23 01:52:00
8:52 PM,24.1,17.1,75,30.20,10.0,Calm,Calm,-,N/A,,Overcast,0,2014-01-23 02:52:00
9:52 PM,23.0,15.1,72,30.22,10.0,West,3.5,-,N/A,,Scattered Clouds,260,2014-01-23 03:52:00
10:52 PM,23.0,15.1,72,30.26,10.0,North,10.4,-,N/A,,Clear,360,2014-01-23 04:52:00
11:52 PM,23.0,12.9,65,30.29,10.0,NNW,10.4,-,N/A,,Overcast,340,2014-01-23 05:52:00